DIRECTV 15 (40663 NORAD) Tracking and Keplerian Element Data

This shows tracking and keplerian element data for the satellite.

Feedback or suggestion? Click here.




ElementValue
Catalog40663
NameDIRECTV 15
Epoch Orbit1305
Epoch Day349.04777306
Epoch Year2018
RAAN26.2422
Inclination0.0153
Eccentricity4.96E-05
Argument of Perigee168.2934
Mean Anonmoly165.477
Mean Motion1.00274418
Decay Rate-1.04E-06
L11 40663U 15026A 18349.04777306 -.00000104 00000-0 00000+0 0 9997
L22 40663 0.0153 26.2422 0000496 168.2934 165.4770 1.00274418 13056

Live tracking and technical data element details for DIRECTV 15 (NORAD 40663). DIRECTV 15 can be tracked NOW for your location showing map with azimuth and elevation plus other details from your city location.

Track the satellite on the map from your city or location and see movement details for azimuth, elevation, latitude, longitude, range, height, and movement on the map or in text.







IsCatalogInMostPopularTable: catalog: 40663, numindb: 162
Update: records affected: 1



GetName: 40663 DIRECTV 15

Hit Count: updated at: Sun, 16 Dec 2018 11:28:09 GMT